Klawock, AK

6:44 AM AKST on December 08, 2019 (GMT -0900)
Klawock

Weather History for PAKW - July, 2019

Change the Weather History Date:

Friday, July 19, 2019

  Actual Average Record
Temperature  
Mean Temperature 60 °F -  
Max Temperature 64 °F 61 °F 68 °F (2001)
Min Temperature 52 °F 49 °F 46 °F (2006)
Degree Days  
Heating Degree Days 6    
Growing Degree Days 10 (Base 50)    
Moisture  
Dew Point 56 °F    
Average Humidity 90    
Maximum Humidity 100    
Minimum Humidity 72    
Precipitation  
Precipitation 0.00 in - - ()
Sea Level Pressure  
Sea Level Pressure 30.08 in    
Wind  
Wind Speed 3 mph (SSW)    
Max Wind Speed 9 mph    
Max Gust Speed -    
Visibility 9 miles    
Events Rain    
Averages and records for this station are not official NWS values.
T = Trace of Precipitation, MM = Missing Value Source: NWS Daily Summary

Daily Weather History Graph

Daily Weather History Graph

Search for Another Location

Airport or City:

Astronomy

Jul. 19, 2019 Rise Set
Actual Time 4:35 AM AKDT 9:20 PM AKDT
Civil Twilight 3:43 AM AKDT 10:12 PM AKDT
Nautical Twilight 2:11 AM AKDT 11:41 PM AKDT
Astronomical Twilight Sun does not rise Sun does not rise
Moon 10:55 PM AKDT (7/19) 7:28 AM AKDT (7/19)
Length of Visible Light 18h 29m
Length of Day
16h 44m
Waning Gibbous, 92% of the Moon is Illuminated
Jul 19
Waning Gibbous
Jul 24
Last Quarter
Jul 31
New
Aug 7
First Quarter
Aug 15
Full

Hourly Weather History & Observations

Time (AKDT) Temp. Dew Point Humidity Pressure Visibility Wind Dir Wind Speed Gust Speed Precip Events Conditions
2:53 AM 55.9 °F 55.0 °F 97% 30.01 in 10.0 mi NE 3.5 mph - N/A   Overcast
4:05 AM 55.0 °F 55.0 °F 100% 30.01 in 10.0 mi Calm Calm - N/A   Overcast
4:40 AM 55.0 °F 55.0 °F 100% 30.02 in 10.0 mi Calm Calm - N/A   Overcast
4:53 AM 55.0 °F 55.0 °F 100% 30.02 in 10.0 mi Calm Calm - N/A   Overcast
5:53 AM 55.0 °F 55.0 °F 100% 30.03 in 10.0 mi Calm Calm - N/A   Overcast
6:53 AM 57.0 °F 57.0 °F 100% 30.04 in 10.0 mi Calm Calm - N/A   Overcast
7:08 AM 57.0 °F 57.0 °F 100% 30.04 in 5.0 mi Calm Calm - 0.00 in Rain Light Rain
7:20 AM 57.0 °F 57.0 °F 100% 30.04 in 5.0 mi Calm Calm - 0.00 in Rain Light Rain
7:26 AM 57.0 °F 57.0 °F 100% 30.04 in 4.0 mi Calm Calm - 0.00 in Rain Light Rain
7:36 AM 57.0 °F 57.0 °F 100% 30.05 in 6.0 mi Calm Calm - 0.00 in   Overcast
7:45 AM 57.0 °F 57.0 °F 100% 30.05 in 10.0 mi Calm Calm - 0.00 in   Overcast
7:53 AM 57.0 °F 57.0 °F 100% 30.05 in 10.0 mi Calm Calm - 0.00 in   Overcast
8:23 AM 57.0 °F 57.0 °F 100% 30.06 in 2.5 mi Calm Calm - 0.00 in Rain Light Rain
8:30 AM 57.0 °F 57.0 °F 100% 30.06 in 2.0 mi SSW 3.5 mph - 0.00 in Rain Light Rain
8:40 AM 57.0 °F 57.0 °F 100% 30.06 in 6.0 mi South 3.5 mph - 0.00 in Rain Light Rain
8:53 AM 57.9 °F 57.0 °F 97% 30.06 in 10.0 mi South 4.6 mph - 0.00 in   Overcast
9:53 AM 57.9 °F 57.0 °F 97% 30.08 in 10.0 mi SW 3.5 mph - 0.00 in   Overcast
11:31 AM 61.0 °F 57.0 °F 87% 30.09 in 10.0 mi SSW 8.1 mph - N/A   Overcast
11:51 AM 62.6 °F 57.2 °F 82% 30.09 in 10.0 mi SW 8.1 mph - N/A   Overcast
11:53 AM 62.1 °F 57.0 °F 84% 30.09 in 10.0 mi SSW 8.1 mph - N/A   Overcast
12:39 PM 61.0 °F 55.9 °F 83% 30.10 in 10.0 mi SE 3.5 mph - N/A   Overcast
12:53 PM 62.1 °F 55.9 °F 80% 30.10 in 10.0 mi SSW 6.9 mph - N/A   Overcast
1:10 PM 62.1 °F 55.0 °F 78% 30.10 in 10.0 mi SSW 9.2 mph - N/A   Mostly Cloudy
1:53 PM 64.0 °F 55.9 °F 75% 30.11 in 10.0 mi Variable 5.8 mph - N/A   Mostly Cloudy
2:53 PM 63.0 °F 55.0 °F 75% 30.12 in 10.0 mi Variable 5.8 mph - N/A   Overcast
3:53 PM 62.1 °F 54.0 °F 75% 30.12 in 10.0 mi SW 4.6 mph - N/A   Overcast
4:53 PM 63.0 °F 54.0 °F 72% 30.12 in 10.0 mi SW 6.9 mph - N/A   Overcast
5:53 PM 62.1 °F 53.1 °F 72% 30.12 in 10.0 mi SSW 8.1 mph - N/A   Overcast
6:53 PM 61.0 °F 53.1 °F 75% 30.13 in 10.0 mi SSW 9.2 mph - N/A   Overcast
7:53 PM 60.1 °F 54.0 °F 80% 30.14 in 10.0 mi SSW 8.1 mph - N/A   Overcast
8:53 PM 59.0 °F 54.0 °F 83% 30.14 in 10.0 mi SW 4.6 mph - N/A   Overcast
9:53 PM 57.0 °F 54.0 °F 89% 30.15 in 10.0 mi Calm Calm - N/A   Overcast
11:53 PM 52.0 °F 52.0 °F 100% 30.15 in 10.0 mi Calm Calm - N/A   Clear